User: anonymous   Login
Location: Unspecified
(0.0000°N, 0.0000°E)
Time: 08:50:45
(UTC+00:00)
Language:

STARLINK-4543 - Orbit

View from above orbital plane
View from above orbital plane
View from above satellite
View from above satellite

Ground track
Ground track

The orbit is defined by the following mean orbital elements,

1 53429U          26145.33928826 +.00000000 +00000-0 +61633-3 0 00007
2 53429  53.2124 120.1398 0001288  92.9789 267.1351 15.08792967    08
Epoch (UTC): 25 May 2026 08:08:34
Eccentricity: 0.0001288
inclination: 53.2124°
perigee height: 539 km
apogee height: 541 km
right ascension of ascending node: 120.1398°
argument of perigee: 92.9789°
revolutions per day: 15.08792967
mean anomaly at epoch: 267.1351°

The dashed part of the orbit path shows where the satellite is in the earth's shadow,  

DLR